www.pogodaiklimat.ru

ПОГОДА в Талсе, OK

  • Прогноз погоды в Талсе
  • Монитор погоды в Талсе
  • Климат в Талсе

АРХИВ ПОГОДЫ в Талсе

Время (UTC), дата Ветер
(напр.,м/с)
 
Видим.   Явления Облачность Т
(С)
Тd
(С)
f
(%)
Тe
(С)
Тes
(С)
Комфортность

P
(гПа)

Po
(гПа)
Тmin
(С)
Tmax
(С)
R
(мм)
SD
(см)
07:53 25.05 ЮВ  4
{10} 
16 км    10/10 180 м  +19.4  +18.3  93  +21  +21  комфорт  1014.2  990.7      14.0   
08:53 25.05 Ю  16 км    10/10 210 м  +20.0  +18.3  90  +23  +23  комфорт  1015.3  992.0         
09:53 25.05 ЮВ  16 км    10/10 180 м  +20.0  +18.9  93  +24  +24  комфорт  1015.9  992.3         
10:53 25.05   16 км    5/5 270 м  +20.0  +18.9  93  +23  +23  комфорт  1016.3  992.6  +19.4  +20.0  14.0   
11:53 25.05 ЮВ  16 км    ясно  +21.1  +18.9  87  +25  +26  комфорт  1016.7  993.0         
12:53 25.05 Ю  16 км    ясно  +23.3  +20.0  82  +30  +32  очень
душно 
1017.1  993.6         
13:19 25.05 Ю  16 км    8/8 480 м  +24.4  +20.6  79  +30  +31  очень
душно 
  993.6         
13:53 25.05 Ю  16 км    8/8 570 м  +26.1  +21.1  74  +33  +33  очень
душно 
1017.7  994.3         
14:29 25.05 Ю  7
{11} 
16 км    5/5 630 м  +26.1  +20.0  69  +32  +33  очень
душно 
  994.3         
14:53 25.05 ЮЗ  5
{9} 
16 км    8/8 720 м  +25.0  +20.0  74  +31  +31  очень
душно 
1018.2  994.6         
15:06 25.05 Ю  4
{9} 
16 км    8/8 720 м
[средняя] 
+26.1  +19.4  67  +32  +33  очень
душно 
  994.6         
15:50 25.05 Ю  5
{9} 
16 км    8/8 870 м  +27.0  +20.0  66  +33  +34  очень
душно 
  994.3         
15:53 25.05 Ю  16 км    5/5 930 м  +27.8  +20.0  63  +34  +36  очень
душно 
1018.2  994.6         
16:53 25.05 Ю  7
{10} 
16 км    2/2 1080 м  +27.8  +19.4  60  +33  +36  очень
душно 
1017.4  993.6  +20.0  +28.9     
17:53 25.05 Ю  16 км    2/2 1110 м  +28.9  +19.4  57  +35  +40  очень
душно 
1016.9  993.3         
18:53 25.05 Ю  6
{9} 
16 км    2/2 1080 м  +30.0  +20.0  55  +36  +41  очень
душно 
1016.7  993.0         
19:53 25.05 Ю  16 км    5/5 1290 м  +30.0  +20.0  55  +36  +38  очень
душно 
1015.9  992.3         
20:53 25.05 Ю  16 км    5/5 1260 м  +30.0  +20.0  55  +36  +38  очень
душно 
1015.3  991.6         
21:53 25.05 Ю  6
{9} 
16 км    ясно  +30.0  +18.9  51  +35  +38  очень
душно 
1014.5  991.0         
22:53 25.05 ЮВ  16 км    ясно  +28.3  +20.0  61  +35  +38  очень
душно 
1014.4  991.0  +27.8  +30.6     
23:53 25.05 ЮВ  16 км    ясно  +27.2  +20.0  65  +33  +35  очень
душно 
1014.9  991.3         
00:53 26.05 ЮВ  16 км    ясно  +26.7  +19.4  64  +32  +32  очень
душно 
1015.7  992.0         
01:53 26.05 Ю  16 км    ясно  +26.1  +20.0  69  +32  +32  очень
душно 
1016.1  992.6         
02:53 26.05   16 км    8/8 1800 м  +23.9  +21.1  84  +30  +30  очень
душно 
1017.3  993.6         
03:53 26.05 Ю  16 км    5/5 1650 м  +25.6  +19.4  69  +31  +31  очень
душно 
1016.9  993.3         
04:14 26.05 Ю  16 км  гроза  ясно  +25.6  +19.4  69  +31  +31  очень
душно 
  993.3         
04:40 26.05 З  9
{14} 
4 км  гроза с дождем  8/8 660 м  +22.2  +18.3  79  +27  +27  душно             
04:44 26.05 СЗ  9
{18} 
1 км  гроза с сильным дождем, дымка  8/8 480 м  +19.4  +17.2  87  +21  +21  комфорт             
04:53 26.05 С  4
{14} 
3 км  гроза с дождем, дымка  10/8 1050 м
[средняя] 
+17.8  +16.1  90  +17  +17    1018.8    +17.8  +28.3  7.9   
05:00 26.05 С  4
{8} 
11 км  гроза со слабым дождем  10/5 900 м
[средняя] 
+18.3  +16.1  87  +18  +18               
05:14 26.05 нст  16 км  гроза, слабый дождь  10/2 1650 м
[средняя] 
+18.9  +17.2  90  +20  +20               
05:23 26.05 С  14 км  слабый дождь  10/0 2700 м
[средняя] 
+18.9  +17.8  93  +21  +21  комфорт             
05:45 26.05 нст  6 км  гроза, сильный дождь, дымка  10/0 2250 м
[средняя] 
+19.4  +17.8  90  +22  +22  комфорт             
05:53 26.05 С  6 км  гроза, дождь, дымка  10/0 2700 м
[средняя] 
+19.4  +17.8  90  +22  +22  комфорт  1018.7           
06:06 26.05   13 км  дождь  10/0 2250 м
[средняя] 
+19.4  +17.8  90  +21  +21  комфорт             
06:25 26.05 ЮВ  14 км  гроза, дождь  10/0 2550 м
[средняя] 
+19.4  +18.3  93  +22  +22  комфорт    995.3         
06:53 26.05 Ю  16 км  гроза, слабый дождь  8/2 360 м
[средняя] 
+19.4  +17.8  90  +21  +21  комфорт  1016.8           
06:55 26.05 Ю  16 км  гроза, слабый дождь  8/2 270 м
[средняя] 
+19.4  +18.3  93  +22  +22  комфорт             
07:10 26.05 Ю  16 км    8/8 180 м
[средняя] 
+19.4  +18.3  93  +21  +21  комфорт    994.0         
07:23 26.05 Ю  16 км    10/10 240 м  +18.9  +17.8  93  +20  +20      993.6         
07:40 26.05 Ю  16 км    8/8 270 м
[средняя] 
+18.9  +17.8  93  +21  +21  комфорт    993.6         
07:48 26.05 ЮВ  16 км    8/5 270 м
[средняя] 
+19.0  +17.0  88  +21  +21  комфорт    993.3         
07:53 26.05   16 км    5/2 270 м
[средняя] 
+18.9  +17.8  93  +20  +20    1016.8  993.3      5.1   
08:17 26.05 ЮВ  16 км    8/8 240 м  +18.9  +17.8  93  +21  +21  комфорт    993.3         
08:53 26.05 Ю  16 км    5/5 210 м  +18.3  +17.2  93  +19  +19    1016.0  992.3         
09:18 26.05 Ю  16 км    8/8 180 м  +18.3  +17.2  93  +19  +19      992.6         
09:40 26.05 Ю  16 км    5/5 180 м  +18.3  +16.7  90  +19  +19      992.6         
09:53 26.05 Ю  16 км    2/2 180 м  +18.3  +17.2  93  +20  +20    1016.7  993.0         

 

Местоположение метеостанции Jones Jr. Airport: широта 36.0425 долгота -95.9894 высота над уровнем моря 194 м.

В архиве по умолчанию представлена погода в Талсе за последние 1-2 суток. Обновление информации о фактической погоде в базе происходит ежечасно! Архивные данные за месяц целиком и за предыдущие месяцы Вы можете получить, выбрав интересующий диапазон дат из раскрывающегося списка и нажав кнопку "Ввод!".

Внимание! Архив погоды МЕТАР в базе сайта хранится не более 60 дней. Нет смысла пытаться выбрать более раннюю дату.

Внимание! Время в таблицах - всемирное. Для получения местного времени необходимо прибавить поправку, которая в Талсе равна -6 ч.

Ветер - указаны скорость ветра в м/с и направление, откуда дует ветер: С - северный, СВ - северо-восточный, В - восточный, ЮВ - юго-восточный, Ю - южный, ЮЗ - юго-западный, З - западный, СЗ - северо-западный.
Видимость - горизонтальная дальность видимости в метрах или километрах. При видимости от 1 до 10 км при отсутствии осадков обычно наблюдается дымка, при ухудшении видимости до 1 км и менее - туман. В сухую погоду видимость может ухудшаться дымом, пылью или мглою.
Атмосферные явления - указаны явления, наблюдавшиеся в указанный момент времени.
Облачность - указаны через наклонную черту верхняя и нижняя облачность в баллах и высота нижней границы облаков в метрах. Внимание: облачность, как и прочие метеорологические величины в США измеряются автоматическими метеостанциями. Указанные значения в баллах носят условный характер и показывают процент времени, в течение которого, в среднем, лазерный луч высотомера отражался от облаков обратно.
T - Температура воздуха - температура, измеренная на высоте 2 м над землей.
Td - Температура точки росы - температура, при понижении до которой содержащийся в воздухе водяной пар достигнет насыщения.
f - Относительная влажность воздуха - влажноcть воздуха, измеренная на высоте 2 м над землей.
Te - Эффективная температура - температура, которую ощущает одетый по сезону человек в тени. Характеристика душности погоды. При расчете учитывается влияние влажности воздуха и скорости ветра на теплоощущения человека.
Tes - Эффективная температура на солнце - температура, которую ощущает человек, с поправкой на солнечный нагрев. Характеристика знойности погоды. Зависит от высоты солнца над горизонтом, облачности и скорости ветра. Ночью, в пасмурную погоду, а также при ветре 12 м/с и более поправка равна нулю.
P - Атмосферное давление - приведенное к уровню моря атмосферное давление.
Po - Атмосферное давление - измеренное на уровне метеостанции атмосферное давление.
Tmin - Минимальная температура - минимум температуры воздуха на высоте 2 м над землей.
Tmax - Максимальная температура - максимум температуры воздуха на высоте 2 м над землей.
R - Количество осадков - Количество выпавших осадков за 3 или 6 часов, мм.
SD - Снежный покров - Высота снежного покрова, см.